1547467200.11,23761,0.0,0.0,-9.33,-9.89,-9.79,0,*57
1547467201.33,23762,0.0,0.0,-9.33,-9.93,-9.79,0,*5F
1547467202.56,23763,0.0,0.0,-9.33,-9.89,-9.79,0,*55
1547467203.78,23764,0.0,0.0,-9.33,-9.89,-9.89,0,*5D
1547467205.01,23765,0.0,0.0,-9.33,-9.79,-9.79,0,*5C
1547467206.24,23766,0.0,0.0,-9.33,-9.93,-9.79,0,*5B
1547467207.46,23767,0.0,0.0,-9.33,-9.89,-9.79,0,*51
1547467208.68,23768,0.0,0.0,-9.33,-9.89,-9.79,0,*5E
1547467209.9,23769,0.0,0.0,-9.33,-9.89,-9.89,0,*50
1547467211.12,23770,0.0,0.0,-9.33,-9.89,-9.75,0,*5B
1547467212.35,23771,0.0,0.0,-9.33,-9.89,-9.75,0,*5A
1547467213.57,23772,0.0,0.0,-9.33,-9.89,-9.79,0,*55
1547467214.77,23773,0.0,0.0,-9.35,-9.89,-9.89,0,*5D
1547467215.97,23774,0.0,0.0,-9.31,-9.75,-9.75,0,*5E
1547467217.18,23775,0.0,0.0,-9.31,-9.75,-9.75,0,*5F
1547467218.41,23776,0.0,0.0,-9.31,-9.83,-9.71,0,*51
1547467219.64,23777,0.0,0.0,-9.33,-9.79,-9.79,0,*5F
1547467220.87,23778,0.0,0.0,-9.33,-9.75,-9.79,0,*5C
1547467222.1,23779,0.0,0.0,-9.33,-9.79,-9.79,0,*51
1547467223.33,23780,0.0,0.0,-9.33,-9.79,-9.75,0,*5B
1547467224.57,23781,0.0,0.0,-9.33,-9.75,-9.79,0,*5A
1547467225.8,23782,0.0,0.0,-9.33,-9.79,-9.75,0,*59
1547467227.03,23783,0.0,0.0,-9.33,-9.79,-9.79,0,*54
1547467228.26,23784,0.0,0.0,-9.33,-9.75,-9.79,0,*5F
1547467229.47,23785,0.0,0.0,-9.31,-9.71,-9.71,0,*50
1547467230.68,23786,0.0,0.0,-9.31,-9.71,-9.71,0,*53
1547467231.92,23787,0.0,0.0,-9.33,-9.79,-9.75,0,*5C
1547467233.12,23788,0.0,0.0,-9.31,-9.75,-9.71,0,*59
1547467234.33,23789,0.0,0.0,-9.31,-9.75,-9.71,0,*58
1547467235.57,23790,0.0,0.0,-9.29,-9.75,-9.75,0,*5D
1547467236.78,23791,0.0,0.0,-9.31,-9.71,-9.75,0,*51
1547467237.98,23792,0.0,0.0,-9.31,-9.75,-9.75,0,*56
1547467239.19,23793,0.0,0.0,-9.31,-9.75,-9.75,0,*57
1547467240.4,23794,0.0,0.0,-9.31,-9.75,-9.71,0,*54
1547467241.61,23795,0.0,0.0,-9.31,-9.71,-9.71,0,*51
1547467242.84,23796,0.0,0.0,-9.33,-9.79,-9.79,0,*50
1547467244.05,23797,0.0,0.0,-9.31,-9.75,-9.75,0,*53
1547467245.26,23798,0.0,0.0,-9.31,-9.71,-9.75,0,*58
1547467246.47,23799,0.0,0.0,-9.31,-9.75,-9.75,0,*5D
1547467247.67,23800,0.0,0.0,-9.31,-9.75,-9.75,0,*52
1547467248.9,23801,0.0,0.0,-9.31,-9.83,-9.75,0,*5A
1547467250.12,23802,0.0,0.0,-9.31,-9.83,-9.75,0,*59
1547467251.35,23803,0.0,0.0,-9.31,-9.83,-9.75,0,*58
1547467252.61,23804,0.0,0.0,-9.29,-9.75,-9.83,0,*56
1547467253.83,23805,0.0,0.0,-9.31,-9.83,-9.71,0,*5A
1547467255.06,23806,0.0,0.0,-9.31,-9.83,-9.75,0,*5D
1547467256.31,23807,0.0,0.0,-9.31,-9.83,-9.83,0,*55
1547467257.51,23808,0.0,0.0,-9.31,-9.75,-9.75,0,*5A
1547467258.72,23809,0.0,0.0,-9.31,-9.75,-9.75,0,*5B
1547467259.93,23810,0.0,0.0,-9.31,-9.75,-9.75,0,*53
1547467261.18,23811,0.0,0.0,-9.31,-9.83,-9.83,0,*52
1547467262.4,23812,0.0,0.0,-9.31,-9.83,-9.75,0,*58
1547467263.63,23813,0.0,0.0,-9.31,-9.83,-9.75,0,*59
1547467264.84,23814,0.0,0.0,-9.31,-9.75,-9.75,0,*57
1547467266.09,23815,0.0,0.0,-9.29,-9.75,-9.83,0,*56
1547467267.32,23816,0.0,0.0,-9.31,-9.83,-9.75,0,*5C
1547467268.55,23817,0.0,0.0,-9.31,-9.75,-9.83,0,*5D
1547467269.78,23818,0.0,0.0,-9.31,-9.75,-9.83,0,*52
1547467271.01,23819,0.0,0.0,-9.31,-9.83,-9.75,0,*53
1547467272.23,23820,0.0,0.0,-9.31,-9.83,-9.75,0,*59
1547467273.48,23821,0.0,0.0,-9.31,-9.83,-9.83,0,*51
1547467274.7,23822,0.0,0.0,-9.33,-9.89,-9.79,0,*5F
1547467275.95,23823,0.0,0.0,-9.31,-9.83,-9.83,0,*53
1547467277.2,23824,0.0,0.0,-9.31,-9.83,-9.83,0,*54
1547467278.45,23825,0.0,0.0,-9.31,-9.83,-9.83,0,*55
1547467279.68,23826,0.0,0.0,-9.31,-9.83,-9.89,0,*5C
1547467280.93,23827,0.0,0.0,-9.31,-9.83,-9.83,0,*57
1547467282.15,23828,0.0,0.0,-9.31,-9.83,-9.75,0,*51
1547467283.35,23829,0.0,0.0,-9.31,-9.89,-9.71,0,*5E
1547467284.58,23830,0.0,0.0,-9.31,-9.75,-9.83,0,*58
1547467285.81,23831,0.0,0.0,-9.31,-9.83,-9.75,0,*59
1547467287.06,23832,0.0,0.0,-9.31,-9.83,-9.83,0,*53
1547467288.31,23833,0.0,0.0,-9.31,-9.83,-9.83,0,*52
1547467289.56,23834,0.0,0.0,-9.29,-9.89,-9.83,0,*56
1547467290.81,23835,0.0,0.0,-9.31,-9.83,-9.83,0,*54
1547467292.03,23836,0.0,0.0,-9.31,-9.83,-9.75,0,*5E
1547467293.24,23837,0.0,0.0,-9.31,-9.75,-9.75,0,*56
1547467294.46,23838,0.0,0.0,-9.31,-9.83,-9.75,0,*50
1547467295.69,23839,0.0,0.0,-9.31,-9.83,-9.75,0,*51
1547467296.91,23840,0.0,0.0,-9.31,-9.83,-9.75,0,*5F
1547467298.12,23841,0.0,0.0,-9.31,-9.75,-9.75,0,*57
1547467299.35,23842,0.0,0.0,-9.31,-9.83,-9.71,0,*59
1547467300.57,23843,0.0,0.0,-9.33,-9.89,-9.79,0,*58
1547467301.79,23844,0.0,0.0,-9.33,-9.89,-9.79,0,*5F
1547467303.02,23845,0.0,0.0,-9.33,-9.89,-9.79,0,*5E
1547467304.25,23846,0.0,0.0,-9.33,-9.79,-9.79,0,*52
1547467305.48,23847,0.0,0.0,-9.33,-9.79,-9.79,0,*53
1547467306.71,23848,0.0,0.0,-9.33,-9.79,-9.79,0,*5C
1547467307.92,23849,0.0,0.0,-9.35,-9.79,-9.79,0,*5B
1547467309.15,23850,0.0,0.0,-9.33,-9.79,-9.75,0,*59
1547467310.38,23851,0.0,0.0,-9.33,-9.79,-9.75,0,*58
1547467311.62,23852,0.0,0.0,-9.33,-9.79,-9.75,0,*5B
1547467312.85,23853,0.0,0.0,-9.33,-9.79,-9.79,0,*56
1547467314.08,23854,0.0,0.0,-9.33,-9.75,-9.79,0,*5D
1547467315.29,23855,0.0,0.0,-9.31,-9.75,-9.75,0,*52
1547467316.49,23856,0.0,0.0,-9.31,-9.75,-9.75,0,*51
1547467317.7,23857,0.0,0.0,-9.31,-9.71,-9.71,0,*50
1547467318.92,23858,0.0,0.0,-9.31,-9.71,-9.71,0,*5F
1547467320.12,23859,0.0,0.0,-9.31,-9.75,-9.75,0,*5E
1547467321.33,23860,0.0,0.0,-9.31,-9.75,-9.71,0,*50
1547467322.57,23861,0.0,0.0,-9.31,-9.71,-9.83,0,*58
1547467323.77,23862,0.0,0.0,-9.31,-9.75,-9.75,0,*56
1547467325.0,23863,0.0,0.0,-9.31,-9.83,-9.71,0,*5A
1547467326.21,23864,0.0,0.0,-9.31,-9.75,-9.75,0,*50
1547467327.43,23865,0.0,0.0,-9.31,-9.89,-9.83,0,*5B
1547467328.68,23866,0.0,0.0,-9.29,-9.83,-9.75,0,*52
1547467329.89,23867,0.0,0.0,-9.31,-9.75,-9.75,0,*53
1547467331.11,23868,0.0,0.0,-9.31,-9.83,-9.75,0,*55
1547467332.35,23869,0.0,0.0,-9.29,-9.75,-9.75,0,*54
1547467333.58,23870,0.0,0.0,-9.31,-9.75,-9.61,0,*50
1547467334.8,23871,0.0,0.0,-9.29,-9.89,-9.75,0,*5E
1547467336.04,23872,0.0,0.0,-9.29,-9.75,-9.75,0,*5E
1547467337.26,23873,0.0,0.0,-9.31,-9.83,-9.75,0,*5F
1547467338.47,23874,0.0,0.0,-9.31,-9.75,-9.75,0,*51
1547467339.67,23875,0.0,0.0,-9.31,-9.75,-9.75,0,*50
1547467340.88,23876,0.0,0.0,-9.31,-9.75,-9.75,0,*53
1547467342.11,23877,0.0,0.0,-9.31,-9.83,-9.75,0,*5B
1547467343.33,23878,0.0,0.0,-9.31,-9.83,-9.75,0,*54
1547467344.56,23879,0.0,0.0,-9.31,-9.83,-9.75,0,*55
1547467345.81,23880,0.0,0.0,-9.29,-9.83,-9.71,0,*5E
1547467347.04,23881,0.0,0.0,-9.31,-9.83,-9.71,0,*56
1547467348.26,23882,0.0,0.0,-9.33,-9.89,-9.79,0,*55
1547467349.51,23883,0.0,0.0,-9.29,-9.83,-9.75,0,*59
1547467350.74,23884,0.0,0.0,-9.31,-9.83,-9.75,0,*57
1547467351.95,23885,0.0,0.0,-9.31,-9.71,-9.75,0,*5B
1547467353.17,23886,0.0,0.0,-9.31,-9.83,-9.75,0,*55
1547467354.38,23887,0.0,0.0,-9.31,-9.75,-9.75,0,*5D
1547467355.61,23888,0.0,0.0,-9.29,-9.75,-9.75,0,*5B
1547467356.82,23889,0.0,0.0,-9.31,-9.75,-9.75,0,*53
1547467358.03,23890,0.0,0.0,-9.31,-9.75,-9.75,0,*5B
1547467359.25,23891,0.0,0.0,-9.31,-9.83,-9.75,0,*53
1547467360.48,23892,0.0,0.0,-9.31,-9.83,-9.75,0,*50
1547467361.68,23893,0.0,0.0,-9.31,-9.75,-9.75,0,*58
1547467362.89,23894,0.0,0.0,-9.31,-9.75,-9.75,0,*5F
1547467364.09,23895,0.0,0.0,-9.31,-9.89,-9.75,0,*5D
1547467365.3,23896,0.0,0.0,-9.31,-9.75,-9.75,0,*5D
1547467366.53,23897,0.0,0.0,-9.31,-9.75,-9.83,0,*55
1547467367.74,23898,0.0,0.0,-9.31,-9.71,-9.75,0,*57
1547467368.96,23899,0.0,0.0,-9.31,-9.83,-9.75,0,*5B
1547467370.19,23900,0.0,0.0,-9.31,-9.83,-9.75,0,*5A
1547467371.39,23901,0.0,0.0,-9.31,-9.89,-9.71,0,*55
1547467372.59,23902,0.0,0.0,-9.31,-9.75,-9.75,0,*51
1547467373.8,23903,0.0,0.0,-9.31,-9.75,-9.75,0,*50
1547467375.01,23904,0.0,0.0,-9.31,-9.75,-9.71,0,*53
1547467376.24,23905,0.0,0.0,-9.31,-9.83,-9.71,0,*5B
1547467377.44,23906,0.0,0.0,-9.31,-9.75,-9.75,0,*55
1547467378.67,23907,0.0,0.0,-9.31,-9.83,-9.75,0,*5D
1547467379.87,23908,0.0,0.0,-9.31,-9.75,-9.75,0,*5B
1547467381.08,23909,0.0,0.0,-9.31,-9.71,-9.75,0,*5E
1547467382.32,23910,0.0,0.0,-9.29,-9.75,-9.71,0,*5F
1547467383.53,23911,0.0,0.0,-9.31,-9.75,-9.75,0,*53
1547467384.74,23912,0.0,0.0,-9.31,-9.71,-9.75,0,*54
1547467385.97,23913,0.0,0.0,-9.29,-9.75,-9.75,0,*58
1547467387.21,23914,0.0,0.0,-9.29,-9.71,-9.71,0,*5F
1547467388.42,23915,0.0,0.0,-9.31,-9.71,-9.75,0,*53
1547467389.65,23916,0.0,0.0,-9.31,-9.71,-9.61,0,*55
1547467390.86,23917,0.0,0.0,-9.31,-9.75,-9.71,0,*51
1547467392.07,23918,0.0,0.0,-9.31,-9.71,-9.71,0,*5A
1547467393.28,23919,0.0,0.0,-9.31,-9.75,-9.71,0,*5F
1547467394.51,23920,0.0,0.0,-9.29,-9.75,-9.75,0,*58
1547467395.75,23921,0.0,0.0,-9.29,-9.71,-9.75,0,*5D
1547467396.98,23922,0.0,0.0,-9.31,-9.83,-9.71,0,*5E
1547467398.23,23923,0.0,0.0,-9.29,-9.83,-9.71,0,*56
1547467399.48,23924,0.0,0.0,-9.29,-9.83,-9.75,0,*55
1547467400.71,23925,0.0,0.0,-9.31,-9.83,-9.71,0,*59
1547467401.96,23926,0.0,0.0,-9.31,-9.83,-9.83,0,*57
1547467403.21,23927,0.0,0.0,-9.29,-9.83,-9.75,0,*56
1547467404.46,23928,0.0,0.0,-9.29,-9.83,-9.75,0,*59
1547467405.71,23929,0.0,0.0,-9.31,-9.83,-9.83,0,*58
1547467406.94,23930,0.0,0.0,-9.31,-9.89,-9.83,0,*5A
1547467408.17,23931,0.0,0.0,-9.31,-9.75,-9.83,0,*58
1547467409.4,23932,0.0,0.0,-9.31,-9.75,-9.83,0,*5B
1547467410.67,23933,0.0,0.0,-9.29,-9.83,-9.83,0,*5A
1547467411.92,23934,0.0,0.0,-9.29,-9.83,-9.89,0,*57
1547467413.15,23935,0.0,0.0,-9.31,-9.89,-9.83,0,*5F
1547467414.4,23936,0.0,0.0,-9.31,-9.83,-9.83,0,*56
1547467415.65,23937,0.0,0.0,-9.29,-9.89,-9.83,0,*54
1547467416.87,23938,0.0,0.0,-9.31,-9.89,-9.83,0,*52
1547467418.07,23939,0.0,0.0,-9.31,-9.89,-9.75,0,*5A
1547467419.32,23940,0.0,0.0,-9.31,-9.83,-9.83,0,*57
1547467420.54,23941,0.0,0.0,-9.31,-9.89,-9.83,0,*5C
1547467421.76,23942,0.0,0.0,-9.33,-9.93,-9.89,0,*5C
1547467422.98,23943,0.0,0.0,-9.31,-9.89,-9.83,0,*5E
1547467424.24,23944,0.0,0.0,-9.29,-9.83,-9.71,0,*57
1547467425.46,23945,0.0,0.0,-9.31,-9.89,-9.83,0,*58
1547467426.68,23946,0.0,0.0,-9.31,-9.89,-9.83,0,*5B
1547467427.91,23947,0.0,0.0,-9.31,-9.89,-9.83,0,*5A
1547467429.13,23948,0.0,0.0,-9.33,-9.89,-9.89,0,*5D
1547467430.35,23949,0.0,0.0,-9.33,-9.93,-9.93,0,*5C
1547467431.6,23950,0.0,0.0,-9.31,-9.83,-9.83,0,*56
1547467432.88,23951,0.0,0.0,-9.29,-9.83,-9.83,0,*5E
1547467434.13,23952,0.0,0.0,-9.31,-9.83,-9.83,0,*54
1547467435.38,23953,0.0,0.0,-9.31,-9.83,-9.83,0,*55
1547467436.63,23954,0.0,0.0,-9.31,-9.83,-9.83,0,*52
1547467437.85,23955,0.0,0.0,-9.31,-9.89,-9.83,0,*59
1547467439.05,23956,0.0,0.0,-9.31,-9.89,-9.75,0,*53
1547467440.28,23957,0.0,0.0,-9.33,-9.89,-10.01,0,*6B
1547467441.5,23958,0.0,0.0,-9.33,-9.93,-9.89,0,*57
1547467442.73,23959,0.0,0.0,-9.33,-9.93,-9.93,0,*5D
1547467443.96,23960,0.0,0.0,-9.33,-9.93,-9.89,0,*5C
1547467445.18,23961,0.0,0.0,-9.33,-9.93,-9.89,0,*5D
1547467446.4,23962,0.0,0.0,-9.33,-9.89,-9.89,0,*55
1547467447.62,23963,0.0,0.0,-9.33,-9.89,-9.89,0,*54
1547467448.84,23964,0.0,0.0,-9.33,-9.93,-9.89,0,*58
1547467450.07,23965,0.0,0.0,-9.33,-9.89,-9.79,0,*5D
1547467451.29,23966,0.0,0.0,-9.33,-9.89,-9.89,0,*51
1547467452.51,23967,0.0,0.0,-9.33,-9.93,-9.79,0,*54
1547467453.71,23968,0.0,0.0,-9.35,-9.89,-9.89,0,*59
1547467454.93,23969,0.0,0.0,-9.33,-9.89,-9.89,0,*5E
1547467456.15,23970,0.0,0.0,-9.33,-9.89,-9.75,0,*55
1547467457.38,23971,0.0,0.0,-9.33,-9.89,-9.93,0,*5C
1547467458.63,23972,0.0,0.0,-9.31,-9.83,-9.83,0,*56
1547467459.85,23973,0.0,0.0,-9.33,-9.93,-9.79,0,*51
1547467461.08,23974,0.0,0.0,-9.33,-9.89,-9.79,0,*5D
1547467462.31,23975,0.0,0.0,-9.33,-9.79,-9.79,0,*53
1547467463.54,23976,0.0,0.0,-9.33,-9.79,-9.79,0,*50
1547467464.76,23977,0.0,0.0,-9.33,-9.89,-9.79,0,*5E
1547467465.97,23978,0.0,0.0,-9.31,-9.75,-9.75,0,*5C
1547467467.18,23979,0.0,0.0,-9.31,-9.71,-9.71,0,*5D
1547467468.42,23980,0.0,0.0,-9.29,-9.75,-9.71,0,*56
1547467469.63,23981,0.0,0.0,-9.31,-9.71,-9.71,0,*5A
1547467470.83,23982,0.0,0.0,-9.31,-9.75,-9.75,0,*59
1547467472.04,23983,0.0,0.0,-9.31,-9.71,-9.75,0,*5C
1547467473.25,23984,0.0,0.0,-9.31,-9.75,-9.75,0,*5F
1547467474.46,23985,0.0,0.0,-9.31,-9.71,-9.71,0,*5E
1547467475.67,23986,0.0,0.0,-9.31,-9.75,-9.75,0,*5D
1547467476.88,23987,0.0,0.0,-9.31,-9.75,-9.71,0,*58
1547467478.11,23988,0.0,0.0,-9.33,-9.79,-9.75,0,*5D
1547467479.34,23989,0.0,0.0,-9.33,-9.79,-9.75,0,*5C
1547467480.55,23990,0.0,0.0,-9.31,-9.75,-9.75,0,*5A
1547467481.76,23991,0.0,0.0,-9.31,-9.71,-9.71,0,*5B
1547467482.97,23992,0.0,0.0,-9.31,-9.71,-9.71,0,*58
1547467484.21,23993,0.0,0.0,-9.29,-9.71,-9.71,0,*50
1547467485.42,23994,0.0,0.0,-9.31,-9.75,-9.71,0,*5A
1547467486.63,23995,0.0,0.0,-9.31,-9.71,-9.71,0,*5F
1547467487.86,23996,0.0,0.0,-9.31,-9.71,-9.57,0,*58
1547467489.1,23997,0.0,0.0,-9.29,-9.71,-9.71,0,*54
1547467490.36,23998,0.0,0.0,-9.29,-9.71,-9.61,0,*5A
1547467491.59,23999,0.0,0.0,-9.31,-9.71,-9.61,0,*52
1547467492.83,24000,0.0,0.0,-9.31,-9.71,-9.61,0,*5C
1547467494.09,24001,0.0,0.0,-9.29,-9.71,-9.61,0,*54
1547467495.34,24002,0.0,0.0,-9.31,-9.61,-9.61,0,*5F
1547467496.6,24003,0.0,0.0,-9.29,-9.71,-9.61,0,*56
1547467497.83,24004,0.0,0.0,-9.31,-9.71,-9.61,0,*58
1547467499.07,24005,0.0,0.0,-9.31,-9.71,-9.61,0,*59
1547467500.32,24006,0.0,0.0,-9.31,-9.61,-9.61,0,*5B
1547467501.6,24007,0.0,0.0,-9.29,-9.61,-9.61,0,*53
1547467502.86,24008,0.0,0.0,-9.29,-9.71,-9.61,0,*5D
1547467504.14,24009,0.0,0.0,-9.29,-9.61,-9.61,0,*5D
1547467505.41,24010,0.0,0.0,-9.29,-9.61,-9.57,0,*50
1547467506.67,24011,0.0,0.0,-9.29,-9.71,-9.61,0,*55
1547467507.93,24012,0.0,0.0,-9.29,-9.71,-9.57,0,*53
1547467509.19,24013,0.0,0.0,-9.29,-9.75,-9.61,0,*53
1547467510.42,24014,0.0,0.0,-9.31,-9.75,-9.61,0,*5D
1547467511.63,24015,0.0,0.0,-9.31,-9.71,-9.71,0,*59
1547467512.86,24016,0.0,0.0,-9.29,-9.75,-9.71,0,*57
1547467514.1,24017,0.0,0.0,-9.29,-9.71,-9.71,0,*52
1547467515.34,24018,0.0,0.0,-9.29,-9.75,-9.75,0,*5D
1547467516.57,24019,0.0,0.0,-9.29,-9.75,-9.75,0,*5C
1547467517.83,24020,0.0,0.0,-9.29,-9.75,-9.83,0,*5F
1547467519.06,24021,0.0,0.0,-9.29,-9.75,-9.75,0,*57
1547467520.27,24022,0.0,0.0,-9.31,-9.75,-9.75,0,*5D
1547467521.5,24023,0.0,0.0,-9.29,-9.75,-9.75,0,*55
1547467522.76,24024,0.0,0.0,-9.29,-9.83,-9.75,0,*5B
1547467524.01,24025,0.0,0.0,-9.29,-9.83,-9.75,0,*5A
1547467525.23,24026,0.0,0.0,-9.29,-9.89,-9.75,0,*53
1547467526.48,24027,0.0,0.0,-9.29,-9.83,-9.75,0,*58
1547467527.73,24028,0.0,0.0,-9.31,-9.83,-9.83,0,*57
1547467528.98,24029,0.0,0.0,-9.29,-9.89,-9.83,0,*55
1547467530.26,24030,0.0,0.0,-9.29,-9.83,-9.83,0,*57
1547467531.51,24031,0.0,0.0,-9.31,-9.83,-9.83,0,*5F
1547467532.74,24032,0.0,0.0,-9.31,-9.83,-9.75,0,*55
1547467533.99,24033,0.0,0.0,-9.29,-9.83,-9.75,0,*5D
1547467535.21,24034,0.0,0.0,-9.31,-9.89,-9.83,0,*50
1547467536.43,24035,0.0,0.0,-9.31,-9.89,-9.83,0,*51
1547467537.68,24036,0.0,0.0,-9.29,-9.83,-9.75,0,*58
1547467538.91,24037,0.0,0.0,-9.31,-9.83,-9.89,0,*53
1547467540.13,24038,0.0,0.0,-9.31,-9.89,-9.83,0,*5C
1547467541.38,24039,0.0,0.0,-9.29,-9.89,-9.83,0,*54
1547467542.6,24040,0.0,0.0,-9.31,-9.89,-9.83,0,*53
1547467543.8,24041,0.0,0.0,-9.31,-9.89,-9.89,0,*58
1547467545.02,24042,0.0,0.0,-9.31,-9.83,-9.89,0,*51
1547467546.24,24043,0.0,0.0,-9.31,-9.89,-9.83,0,*50
1547467547.52,24044,0.0,0.0,-9.29,-9.83,-9.83,0,*54
1547467548.8,24045,0.0,0.0,-9.29,-9.83,-9.83,0,*55
1547467550.05,24046,0.0,0.0,-9.31,-9.83,-9.83,0,*5F
1547467551.3,24047,0.0,0.0,-9.29,-9.89,-9.83,0,*5D
1547467552.52,24048,0.0,0.0,-9.31,-9.89,-9.83,0,*5B
1547467553.71,24049,0.0,0.0,-9.31,-9.89,-9.89,0,*50
1547467554.91,24050,0.0,0.0,-9.31,-9.89,-9.89,0,*58
1547467556.11,24051,0.0,0.0,-9.31,-9.89,-9.89,0,*59
1547467557.36,24052,0.0,0.0,-9.31,-9.83,-9.83,0,*5A
1547467558.58,24053,0.0,0.0,-9.31,-9.89,-9.83,0,*51
1547467559.83,24054,0.0,0.0,-9.31,-9.83,-9.83,0,*5C
1547467561.05,24055,0.0,0.0,-9.31,-9.83,-9.89,0,*57
1547467562.27,24056,0.0,0.0,-9.31,-9.89,-9.83,0,*54
1547467563.47,24057,0.0,0.0,-9.31,-9.89,-9.97,0,*50
1547467564.67,24058,0.0,0.0,-9.31,-9.89,-9.89,0,*50
1547467565.92,24059,0.0,0.0,-9.31,-9.83,-9.83,0,*51
1547467567.14,24060,0.0,0.0,-9.33,-9.89,-9.89,0,*59
1547467568.36,24061,0.0,0.0,-9.29,-9.89,-9.89,0,*53
1547467569.61,24062,0.0,0.0,-9.31,-9.83,-9.83,0,*59
1547467570.8,24063,0.0,0.0,-9.31,-9.89,-9.89,0,*58
1547467572.03,24064,0.0,0.0,-9.31,-9.89,-9.83,0,*55
1547467573.28,24065,0.0,0.0,-9.29,-9.89,-9.83,0,*5D
1547467574.5,24066,0.0,0.0,-9.33,-9.89,-9.89,0,*5F
1547467575.72,24067,0.0,0.0,-9.29,-9.89,-9.89,0,*55
1547467576.94,24068,0.0,0.0,-9.31,-9.89,-9.83,0,*59
1547467578.16,24069,0.0,0.0,-9.31,-9.89,-9.83,0,*58
1547467579.41,24070,0.0,0.0,-9.29,-9.89,-9.83,0,*59
1547467580.64,24071,0.0,0.0,-9.31,-9.89,-9.83,0,*51
1547467581.88,24072,0.0,0.0,-9.31,-9.83,-9.83,0,*58
1547467583.11,24073,0.0,0.0,-9.33,-9.89,-9.93,0,*50
1547467584.33,24074,0.0,0.0,-9.33,-9.89,-9.89,0,*5C
1547467585.55,24075,0.0,0.0,-9.33,-9.89,-9.89,0,*5D
1547467586.78,24076,0.0,0.0,-9.33,-9.93,-9.93,0,*5E
1547467588.0,24077,0.0,0.0,-9.33,-9.89,-9.93,0,*54
1547467589.23,24078,0.0,0.0,-9.33,-9.93,-9.93,0,*50
1547467590.45,24079,0.0,0.0,-9.33,-9.89,-9.89,0,*51
1547467591.67,24080,0.0,0.0,-9.33,-9.89,-9.89,0,*57
1547467592.89,24081,0.0,0.0,-9.33,-9.93,-9.89,0,*5D
1547467594.11,24082,0.0,0.0,-9.33,-9.89,-9.89,0,*55
1547467595.34,24083,0.0,0.0,-9.33,-9.93,-9.89,0,*5F
1547467596.56,24084,0.0,0.0,-9.33,-9.89,-9.89,0,*53
1547467597.78,24085,0.0,0.0,-9.33,-9.93,-9.89,0,*59
1547467599.0,24086,0.0,0.0,-9.33,-9.89,-9.79,0,*5E
1547467600.22,24087,0.0,0.0,-9.33,-9.89,-9.89,0,*50
1547467601.44,24088,0.0,0.0,-9.33,-9.89,-9.89,0,*5F
1547467602.66,24089,0.0,0.0,-9.33,-9.89,-9.89,0,*5E
1547467603.88,24090,0.0,0.0,-9.33,-9.89,-9.89,0,*56
1547467605.11,24091,0.0,0.0,-9.33,-9.79,-9.89,0,*58
1547467606.34,24092,0.0,0.0,-9.33,-9.89,-9.79,0,*5B
1547467607.56,24093,0.0,0.0,-9.33,-9.89,-9.79,0,*5A
1547467608.78,24094,0.0,0.0,-9.33,-9.89,-9.79,0,*5D
1547467610.01,24095,0.0,0.0,-9.33,-9.79,-9.89,0,*5C
1547467611.24,24096,0.0,0.0,-9.33,-9.89,-9.79,0,*5F
1547467612.46,24097,0.0,0.0,-9.33,-9.93,-9.79,0,*55
1547467613.67,24098,0.0,0.0,-9.31,-9.71,-9.75,0,*58
1547467614.88,24099,0.0,0.0,-9.31,-9.75,-9.75,0,*5D
1547467616.1,24100,0.0,0.0,-9.33,-9.89,-9.79,0,*51
1547467617.32,24101,0.0,0.0,-9.33,-9.89,-9.89,0,*5F
1547467618.54,24102,0.0,0.0,-9.33,-9.89,-9.89,0,*5C
1547467619.76,24103,0.0,0.0,-9.33,-9.89,-9.75,0,*5E
1547467620.99,24104,0.0,0.0,-9.31,-9.83,-9.75,0,*51
1547467622.21,24105,0.0,0.0,-9.29,-9.89,-9.75,0,*53
1547467623.44,24106,0.0,0.0,-9.33,-9.89,-9.79,0,*57
1547467624.66,24107,0.0,0.0,-9.33,-9.89,-9.89,0,*59
1547467625.88,24108,0.0,0.0,-9.33,-9.89,-9.89,0,*56
1547467627.1,24109,0.0,0.0,-9.33,-9.89,-9.89,0,*57
1547467628.32,24110,0.0,0.0,-9.33,-9.93,-9.89,0,*54
1547467629.56,24111,0.0,0.0,-9.33,-9.79,-9.93,0,*5A
1547467630.79,24112,0.0,0.0,-9.33,-9.79,-9.79,0,*5D
1547467631.99,24113,0.0,0.0,-9.35,-9.89,-9.79,0,*55
1547467633.21,24114,0.0,0.0,-9.33,-9.89,-9.79,0,*54
1547467634.43,24115,0.0,0.0,-9.33,-9.89,-9.79,0,*55
1547467635.65,24116,0.0,0.0,-9.33,-9.89,-9.89,0,*59
1547467636.88,24117,0.0,0.0,-9.33,-9.79,-9.89,0,*57
1547467638.11,24118,0.0,0.0,-9.31,-9.75,-9.83,0,*5C
1547467639.32,24119,0.0,0.0,-9.31,-9.75,-9.75,0,*54
1547467640.55,24120,0.0,0.0,-9.31,-9.83,-9.75,0,*57
1547467641.78,24121,0.0,0.0,-9.33,-9.79,-9.79,0,*5D
1547467643.0,24122,0.0,0.0,-9.33,-9.89,-9.89,0,*5E
1547467644.23,24123,0.0,0.0,-9.33,-9.79,-9.89,0,*50
1547467645.45,24124,0.0,0.0,-9.33,-9.89,-9.75,0,*5B
1547467646.68,24125,0.0,0.0,-9.33,-9.79,-9.75,0,*55
1547467647.9,24126,0.0,0.0,-9.33,-9.89,-9.89,0,*5A
1547467649.12,24127,0.0,0.0,-9.33,-9.89,-9.89,0,*5B
1547467650.35,24128,0.0,0.0,-9.33,-9.79,-9.89,0,*5B
1547467651.58,24129,0.0,0.0,-9.31,-9.83,-9.75,0,*5E
1547467652.8,24130,0.0,0.0,-9.33,-9.89,-9.89,0,*5D
1547467654.02,24131,0.0,0.0,-9.33,-9.93,-9.89,0,*57
1547467655.22,24132,0.0,0.0,-9.35,-9.89,-9.89,0,*59
1547467656.45,24133,0.0,0.0,-9.33,-9.79,-9.79,0,*5E
1547467657.68,24134,0.0,0.0,-9.33,-9.79,-9.79,0,*59
1547467658.91,24135,0.0,0.0,-9.33,-9.89,-9.79,0,*57
1547467660.13,24136,0.0,0.0,-9.33,-9.89,-9.89,0,*5B
1547467661.35,24137,0.0,0.0,-9.33,-9.93,-9.89,0,*51
1547467662.57,24138,0.0,0.0,-9.33,-9.89,-9.89,0,*55
1547467663.79,24139,0.0,0.0,-9.33,-9.93,-9.89,0,*5F
1547467665.01,24140,0.0,0.0,-9.33,-9.89,-9.89,0,*5A
1547467666.24,24141,0.0,0.0,-9.33,-9.89,-9.79,0,*54
1547467667.46,24142,0.0,0.0,-9.33,-9.89,-9.89,0,*58
1547467668.68,24143,0.0,0.0,-9.33,-9.89,-9.89,0,*59
1547467669.9,24144,0.0,0.0,-9.33,-9.89,-9.89,0,*5E
1547467671.12,24145,0.0,0.0,-9.33,-9.89,-9.89,0,*5F
1547467672.34,24146,0.0,0.0,-9.33,-9.89,-9.93,0,*57
1547467673.56,24147,0.0,0.0,-9.33,-9.89,-9.79,0,*52
1547467674.79,24148,0.0,0.0,-9.33,-9.93,-9.89,0,*59
1547467676.01,24149,0.0,0.0,-9.33,-9.89,-9.79,0,*5C
1547467677.23,24150,0.0,0.0,-9.33,-9.89,-9.89,0,*5B
1547467678.45,24151,0.0,0.0,-9.33,-9.89,-9.89,0,*5A
1547467679.7,24152,0.0,0.0,-9.31,-9.83,-9.83,0,*5B
1547467680.93,24153,0.0,0.0,-9.31,-9.83,-9.75,0,*53
1547467682.15,24154,0.0,0.0,-9.33,-9.89,-9.93,0,*54
1547467683.37,24155,0.0,0.0,-9.33,-9.89,-9.89,0,*5E
1547467684.59,24156,0.0,0.0,-9.33,-9.89,-9.89,0,*5D
1547467685.81,24157,0.0,0.0,-9.33,-9.89,-9.75,0,*5F
1547467687.03,24158,0.0,0.0,-9.33,-9.89,-9.89,0,*53
1547467688.26,24159,0.0,0.0,-9.33,-9.89,-9.93,0,*59
1547467689.49,24160,0.0,0.0,-9.33,-9.79,-9.89,0,*57
1547467690.72,24161,0.0,0.0,-9.33,-9.79,-9.89,0,*56
1547467691.95,24162,0.0,0.0,-9.33,-9.79,-9.89,0,*55
1547467693.2,24163,0.0,0.0,-9.31,-9.83,-9.83,0,*59
1547467694.42,24164,0.0,0.0,-9.33,-9.89,-9.89,0,*5C
1547467695.64,24165,0.0,0.0,-9.33,-9.93,-9.89,0,*56
1547467696.86,24166,0.0,0.0,-9.33,-9.89,-9.79,0,*51
1547467698.09,24167,0.0,0.0,-9.33,-9.93,-9.89,0,*54
1547467699.31,24168,0.0,0.0,-9.33,-9.89,-9.89,0,*50
1547467700.54,24169,0.0,0.0,-9.33,-9.79,-9.93,0,*55
1547467701.76,24170,0.0,0.0,-9.33,-9.89,-9.89,0,*59
1547467702.98,24171,0.0,0.0,-9.33,-9.93,-9.89,0,*53
1547467704.21,24172,0.0,0.0,-9.33,-9.93,-9.93,0,*5B
1547467705.43,24173,0.0,0.0,-9.33,-9.89,-9.89,0,*5A
1547467706.65,24174,0.0,0.0,-9.33,-9.89,-9.89,0,*5D
1547467707.88,24175,0.0,0.0,-9.33,-9.79,-9.89,0,*53
1547467709.08,24176,0.0,0.0,-9.35,-9.93,-9.89,0,*52
1547467710.3,24177,0.0,0.0,-9.33,-9.89,-9.89,0,*5E
1547467711.53,24178,0.0,0.0,-9.33,-9.93,-9.79,0,*55
1547467712.75,24179,0.0,0.0,-9.33,-9.93,-9.79,0,*54
1547467713.97,24180,0.0,0.0,-9.33,-9.89,-9.89,0,*56
1547467715.2,24181,0.0,0.0,-9.33,-9.93,-9.89,0,*5C
1547467716.42,24182,0.0,0.0,-9.33,-9.89,-9.89,0,*54
1547467717.64,24183,0.0,0.0,-9.33,-9.89,-9.89,0,*55
1547467718.84,24184,0.0,0.0,-9.35,-9.89,-9.79,0,*5B
1547467720.06,24185,0.0,0.0,-9.33,-9.89,-9.89,0,*53
1547467721.28,24186,0.0,0.0,-9.33,-9.93,-9.79,0,*54
1547467722.48,24187,0.0,0.0,-9.35,-9.89,-9.79,0,*58
1547467723.71,24188,0.0,0.0,-9.33,-9.93,-9.79,0,*5A
1547467724.91,24189,0.0,0.0,-9.35,-9.79,-9.89,0,*56
1547467726.14,24190,0.0,0.0,-9.33,-9.79,-9.89,0,*58
1547467727.36,24191,0.0,0.0,-9.33,-9.89,-9.89,0,*56
1547467728.58,24192,0.0,0.0,-9.33,-9.89,-9.89,0,*55
1547467729.81,24193,0.0,0.0,-9.33,-9.89,-9.79,0,*5B
1547467731.03,24194,0.0,0.0,-9.33,-9.89,-9.79,0,*5C
1547467732.25,24195,0.0,0.0,-9.33,-9.89,-9.89,0,*52
1547467733.47,24196,0.0,0.0,-9.33,-9.89,-9.79,0,*5E
1547467734.71,24197,0.0,0.0,-9.33,-9.79,-9.79,0,*50
1547467735.93,24198,0.0,0.0,-9.33,-9.89,-9.79,0,*50
1547467737.13,24199,0.0,0.0,-9.35,-9.89,-9.79,0,*57
1547467738.33,24200,0.0,0.0,-9.35,-9.89,-9.79,0,*54
1547467739.55,24201,0.0,0.0,-9.33,-9.89,-9.79,0,*53
1547467740.77,24202,0.0,0.0,-9.33,-9.89,-9.79,0,*50
1547467742.0,24203,0.0,0.0,-9.33,-9.79,-9.79,0,*5E
1547467743.24,24204,0.0,0.0,-9.33,-9.79,-9.79,0,*59
1547467744.44,24205,0.0,0.0,-9.35,-9.79,-9.89,0,*51
1547467745.66,24206,0.0,0.0,-9.33,-9.89,-9.89,0,*5B
1547467746.88,24207,0.0,0.0,-9.33,-9.89,-9.79,0,*55
1547467748.12,24208,0.0,0.0,-9.33,-9.79,-9.79,0,*55
1547467749.35,24209,0.0,0.0,-9.33,-9.79,-9.79,0,*54
1547467750.57,24210,0.0,0.0,-9.33,-9.89,-9.79,0,*53
1547467751.8,24211,0.0,0.0,-9.33,-9.89,-9.79,0,*52
1547467752.99,24212,0.0,0.0,-9.35,-9.89,-9.89,0,*58
1547467754.19,24213,0.0,0.0,-9.35,-9.89,-9.89,0,*59
1547467755.41,24214,0.0,0.0,-9.33,-9.93,-9.79,0,*5C
1547467756.64,24215,0.0,0.0,-9.33,-9.93,-9.89,0,*52
1547467757.86,24216,0.0,0.0,-9.33,-9.89,-9.89,0,*5A
1547467759.05,24217,0.0,0.0,-9.35,-9.89,-9.89,0,*5D
1547467760.28,24218,0.0,0.0,-9.33,-9.93,-9.93,0,*54
1547467761.5,24219,0.0,0.0,-9.33,-9.89,-9.89,0,*55
1547467762.72,24220,0.0,0.0,-9.33,-9.89,-9.89,0,*5F
1547467763.94,24221,0.0,0.0,-9.33,-9.89,-9.89,0,*5E
1547467765.16,24222,0.0,0.0,-9.33,-9.89,-9.89,0,*5D